Regional Weather Roundup
Issued by NWS

Home | Current Version | Previous Version | Text Only | Print | Product List | Glossary On
Versions: 1 2 3 4 5 6 7 8 9 10 11 12 13 14 15 16 17 18 19 20 21 22 23 24 25 26 27
000
ASUS45 KREV 270610
RWRNV
NEVADA REGIONAL WEATHER ROUNDUP
NATIONAL WEATHER SERVICE RENO NV
1100 PM PDT THU MAY 26 2016

NOTE: "FAIR" INDICATES FEW OR NO CLOUDS BELOW 12,000 FEET WITH NO
SIGNIFICANT WEATHER AND/OR OBSTRUCTIONS TO VISIBILITY.

NVZ001-003-004-270700-
WESTERN NEVADA

CITY           SKY/WX    TMP DP  RH WIND       PRES   REMARKS
RENO           PTCLDY    62  41  46 N7        30.06R
6HR MIN TEMP:  62; 6HR MAX TEMP:  73;

CARSON CITY    MOCLDY    57  41  54 S3        30.08S
MINDEN         FAIR      55  41  58 W5        30.08S
SLIDE MTN        N/A     37  32  81 NW7         N/A
PYRAMID LAKE     N/A     64 N/A N/A W8          N/A
FALLON         CLEAR     55  33  43 SW5       30.00R
6HR MIN TEMP:  53; 6HR MAX TEMP:  74;

LOVELOCK       PTCLDY    61  33  35 NW9       29.98S
6HR MIN TEMP:  59; 6HR MAX TEMP:  74;

HAWTHORNE      CLEAR     59  36  41 SW3       30.03S
$$

NVZ002-CAZ072-073-270700-
NORTHERN AND CENTRAL SIERRA

CITY           SKY/WX    TMP DP  RH WIND       PRES   REMARKS
S. LAKE TAHOE  CLEAR     44  39  82 CALM      30.14S
6HR MIN TEMP:  44; 6HR MAX TEMP:  61;

TRUCKEE        CLEAR     43  39  87 CALM      30.14F
SQUAW VLY 8000 NOT AVBL
SUSANVILLE     CLEAR     55  43  62 CALM      30.06R
BLUE CANYON    CLEAR     52  41  66 CALM      30.13S
MAMMOTH LAKES  CLOUDY    47  38  72 W9        30.16S
6HR MIN TEMP:  47; 6HR MAX TEMP:  61;

BRIDGEPORT     FAIR      43  33  68 MISG      30.13R
$$

NVZ030-031-036-270700-
NORTHERN NEVADA

CITY           SKY/WX    TMP DP  RH WIND       PRES   REMARKS
ELKO           PTCLDY    48  41  76 CALM      30.03F
6HR MIN TEMP:  48; 6HR MAX TEMP:  60; 6HR PCP:  0.02;

WINNEMUCCA     MOCLDY    49  35  58 CALM      29.99S
6HR MIN TEMP:  49; 6HR MAX TEMP:  72;

WENDOVER       CLEAR     61  36  39 NW14G21   29.98S
$$

NVZ035-037-270700-
CENTRAL NEVADA

CITY           SKY/WX    TMP DP  RH WIND       PRES   REMARKS
ELY            PTCLDY    45  33  63 NW5       30.07F
6HR MIN TEMP:  45; 6HR MAX TEMP:  60;

EUREKA           N/A     42  36  79 S6        30.07F
6HR MIN TEMP:  42; 6HR MAX TEMP:  59;

$$

NVZ013-014-270700-
SOUTH CENTRAL NEVADA

CITY           SKY/WX    TMP DP  RH WIND       PRES   REMARKS
TONOPAH        CLEAR     58  28  32 N10       30.05S
6HR MIN TEMP:  58; 6HR MAX TEMP:  69;

$$

NVZ017-020-022-270700-
SOUTHERN NEVADA

CITY           SKY/WX    TMP DP  RH WIND       PRES   REMARKS
LAS VEGAS      PTCLDY    78  31  17 SW6       29.81F
6HR MIN TEMP:  76; 6HR MAX TEMP:  84;

N. LAS VEGAS   CLEAR     74  35  24 N7        29.84S
6HR MIN TEMP:  57; 6HR MAX TEMP:  83;

NELLIS AFB     CLEAR     74  34  22 CALM      29.82F
6HR MIN TEMP:  74; 6HR MAX TEMP:  85;

HENDERSON      CLEAR     71  33  24 S9        29.88F
6HR MIN TEMP:  71; 6HR MAX TEMP:  82;

MERCURY        CLEAR     65  28  24 NE3       29.91S
6HR MIN TEMP:  64; 6HR MAX TEMP:  79;

$$




USA.gov is the U.S. government's official web portal to all federal, state and local government web resources and services.